#timestamp,LO_Frequency,Hit,StdDev 
1503864015.9,286047002.4,N,1.6
1503864035.7,286047002.1,N,1.6
1503864055.5,286047000.4,N,1.5
1503864075.4,286047000.2,N,1.4
1503864095.2,286047002.7,N,1.5
1503864115.0,286047014.0,Y,0.0
1503864115.9,286047014.0,P,6.6
1503864135.8,286047010.4,N,5.6
1503864155.6,286047006.3,N,4.9
1503864175.4,286047005.6,N,4.5
1503864195.3,286047005.7,N,4.2
1503864215.1,286047005.5,N,3.9
1503864235.8,286047004.4,N,3.7
1503864255.7,286047003.9,N,3.6
1503864275.5,286047002.2,N,3.7
1503864295.3,286047002.0,N,3.7
1503864315.2,286047004.0,N,3.5
1503864335.0,286047006.2,N,3.4
1503864335.9,286047006.2,N,3.3
1503864355.7,286047006.8,N,3.2
1503864375.6,286047007.0,N,3.1
1503864395.4,286047007.5,N,3.0
1503864415.3,286047007.3,N,3.0
1503864435.1,286047005.4,N,2.9
1503864436.0,286047005.4,N,2.8
1503864455.8,286047004.8,N,2.8
1503864475.7,286047005.7,N,2.7
1503864495.5,286047005.3,N,2.6
1503864515.3,286047004.7,N,2.6
1503864535.2,286047011.9,Y,0.0
1503864555.9,286047000.4,P,2.7
1503864575.7,286047000.6,N,2.5
1503864595.6,286047000.3,N,2.3
1503864615.4,286047000.0,N,2.2
1503864635.2,286047000.9,N,2.0
1503864655.1,286047000.2,N,1.9
1503864656.0,286047000.2,N,1.8
1503864675.8,286047001.1,N,1.7
1503864695.6,286047001.0,N,1.6
1503864715.5,286046999.9,N,1.6
1503864735.3,286047000.2,N,1.5
1503864755.2,286047000.2,N,1.5
1503864775.9,286046999.7,N,1.4
1503864795.7,286047000.3,N,1.4
1503864815.6,286047000.2,N,1.4
1503864835.4,286046999.9,N,1.3
1503864855.2,286047000.9,N,1.3
1503864875.1,286047000.4,N,1.3
1503864876.0,286047000.4,N,1.2
1503864895.8,286046998.5,N,1.3
1503864915.6,286047000.4,N,1.2
1503864935.5,286047000.8,N,1.2
1503864955.3,286047000.3,N,1.2
1503864975.1,286046998.4,N,1.2
1503864995.9,286046998.3,N,1.3
1503865015.7,286046998.1,N,1.3
1503865035.5,286046999.4,N,1.3
1503865055.4,286046998.6,N,1.3
1503865075.2,286046999.0,N,1.3
1503865095.0,286046998.4,N,0.9
1503865095.9,286046998.4,N,0.9
1503865115.8,286046998.6,N,0.9
1503865135.6,286047000.7,N,0.9
1503865155.5,286046998.1,N,1.0
1503865175.3,286046998.4,N,1.0
1503865195.1,286046999.3,N,1.0
1503865215.9,286046999.3,N,1.0
1503865235.7,286046998.2,N,1.0
1503865255.5,286046998.2,N,0.9
1503865275.4,286046998.9,N,0.9
1503865295.2,286046998.8,N,0.9
1503865315.0,286046998.8,N,0.9
1503865315.9,286046998.8,N,0.9
1503865335.8,286046998.7,N,0.9
1503865355.6,286046999.2,N,0.9
1503865375.4,286046996.5,Y,0.0
1503865395.3,286046999.2,P,0.0
1503865415.1,286046998.9,P,0.1
1503865435.8,286046998.3,P,0.4
1503865455.7,286046999.5,N,0.4
1503865475.5,286046996.6,Y,0.0
1503865495.3,286046998.8,P,0.1
1503865515.2,286046998.4,P,0.3
1503865535.0,286046998.9,P,0.2
1503865535.9,286046998.9,Y,0.0
1503865555.8,286047000.6,P,0.9
1503865575.6,286047001.1,N,1.0
1503865595.4,286046998.3,N,1.2
1503865615.3,286046998.5,N,1.2
1503865635.1,286046998.2,N,1.2
1503865636.0,286046998.2,N,1.1
1503865655.8,286047000.7,N,1.2
1503865675.7,286046998.8,N,1.1
1503865695.5,286046998.9,N,1.1
1503865715.3,286046998.2,N,1.1
1503865735.2,286047002.1,N,1.3
1503865755.9,286047006.7,Y,0.0
1503865775.7,286047007.2,P,3.9
1503865795.6,286047003.4,N,3.2
1503865815.4,286047002.8,N,2.8
1503865835.2,286047000.2,N,2.8
1503865855.1,286046998.8,N,2.9
1503865856.0,286046998.8,N,2.9
1503865875.8,286046996.7,N,3.1
1503865895.6,286046997.4,N,3.2
1503865915.5,286046995.4,N,3.4
1503865935.3,286046995.5,N,3.5
1503865955.1,286046993.4,N,3.7
1503865975.9,286046993.5,N,3.9
1503865995.7,286046994.6,N,3.9
1503866015.5,286047001.2,N,3.8
1503866035.4,286047001.6,N,3.8
1503866055.2,286047002.6,N,3.8
1503866075.1,286047000.3,N,3.7
1503866076.0,286047000.3,N,3.6
1503866095.8,286047001.2,N,3.5
1503866115.6,286046996.9,N,3.5
1503866135.5,286046997.4,N,3.4
1503866155.3,286046997.8,N,3.3
1503866175.1,286046995.6,N,3.3
1503866195.9,286046995.2,N,3.4
1503866215.7,286046993.4,N,3.4
1503866235.5,286046996.1,N,3.4
1503866255.4,286046993.7,N,3.5
1503866275.2,286046993.8,N,3.5
1503866295.0,286046994.0,N,3.5
1503866295.9,286046994.0,N,3.6
1503866315.8,286046993.5,N,3.2
1503866335.6,286046991.7,N,3.1
1503866355.4,286046994.2,N,3.0
1503866375.3,286046994.5,N,2.9
1503866395.1,286046994.5,N,2.9
1503866415.8,286046994.2,N,2.9
1503866435.7,286046994.1,N,2.9
1503866455.5,286046994.0,N,2.9
1503866475.3,286046993.5,N,3.0
1503866495.2,286046993.9,N,3.0
1503866515.0,286046993.7,N,3.0
1503866515.9,286046993.7,N,3.0
1503866535.8,286046993.6,N,3.0
1503866555.6,286046993.5,N,2.8
1503866575.4,286046996.3,N,2.6
1503866595.3,286046993.3,N,2.3
1503866615.1,286046993.3,N,2.1
1503866616.0,286046993.3,Y,0.0
1503866635.8,286047000.0,P,2.6
1503866655.7,286047000.2,N,2.5
1503866675.5,286047000.7,N,2.4
1503866695.3,286047000.3,N,2.2
1503866715.2,286047000.2,N,2.0
1503866735.9,286047001.5,N,2.0
1503866755.7,286047004.3,N,2.4
1503866775.6,286047004.1,N,2.6
1503866795.4,286047003.5,N,2.6
1503866815.2,286047007.4,N,3.1
1503866835.1,286047006.9,N,3.3
1503866836.0,286047006.9,N,3.4
1503866855.8,286047005.3,N,3.4
1503866875.6,286047003.5,N,3.3
1503866895.5,286047001.5,N,3.2
1503866915.3,286047001.9,N,3.1
1503866935.1,286047002.2,N,3.0
1503866955.9,286047000.3,N,3.0
1503866975.7,286047000.8,N,2.9
1503866995.6,286047001.1,N,2.9
1503867015.4,286047000.8,N,2.8
1503867035.2,286047001.1,N,2.8
1503867055.1,286047000.4,N,2.7
1503867056.0,286047000.4,N,2.7
1503867075.8,286047001.0,N,2.7
1503867095.6,286046999.8,N,2.6
1503867115.5,286047000.1,N,2.6
1503867135.3,286047001.0,N,2.6
1503867155.1,286046999.7,N,2.6
1503867175.9,286047000.0,N,2.2
1503867195.7,286047000.3,N,2.2
1503867215.5,286047000.9,N,2.2
1503867235.4,286047002.8,N,2.2
1503867255.2,286047002.3,N,2.2
1503867275.0,286047002.3,N,2.2
1503867275.9,286047002.3,N,2.2
1503867295.8,286047002.3,N,2.1
1503867315.6,286047002.5,N,2.1
1503867335.4,286047001.3,N,2.1
1503867355.3,286047001.3,N,1.8
1503867375.1,286047003.9,N,1.6
1503867395.9,286047004.2,N,1.4
1503867415.7,286047004.2,Y,0.0
1503867435.5,286047000.1,P,0.7
1503867455.4,286047002.8,P,1.1
1503867475.2,286047002.6,N,1.1
1503867495.0,286047002.1,N,1.0
1503867495.9,286047002.1,N,0.9
1503867515.8,286047002.3,N,0.8
1503867535.6,286047002.6,Y,0.0
1503867555.4,286047001.1,P,0.4
1503867575.3,286046998.1,P,1.6
1503867595.1,286047000.9,N,1.4
